Weather History for LKTB - November, 2012

Change the Weather History Date:

Saturday, November 3, 2012

  Actual Average Record
Temperature  
Mean Temperature 42 °F -  
Max Temperature 48 °F 43 °F - ()
Min Temperature 37 °F 33 °F - ()
Degree Days  
Heating Degree Days 22    
Moisture  
Dew Point 39 °F    
Average Humidity 87    
Maximum Humidity 93    
Minimum Humidity 76    
Precipitation  
Precipitation 0.00 in 0.05 in - ()
Sea Level Pressure  
Sea Level Pressure 29.80 in    
Wind  
Wind Speed 5 mph ()    
Max Wind Speed 13 mph    
Max Gust Speed -    
Visibility 6.4 miles    
Events Rain    
T = Trace of Precipitation, MM = Missing Value Source: Averaged Metar Reports

Daily Weather History Graph

Daily Weather History Graph

Search for Another Location

Airport or City:

Trip Planner

Search our weather history database for the weather conditions in past years. The results will help you decide how hot, cold, wet, or windy it might be!

Date:

Astronomy

Nov. 03, 2012 Rise Set
Actual Time 6:44 AM CET 4:28 PM CET
Civil Twilight 6:10 AM CET 5:01 PM CET
Nautical Twilight 5:33 AM CET 5:39 PM CET
Astronomical Twilight 4:56 AM CET 6:16 PM CET
Moon 7:43 PM CET (11/3) 10:46 AM CET (11/3)
Length of Visible Light 10h 51m
Length of Day
9h 44m
Waning Gibbous, 82% of the Moon is Illuminated
Nov 3
Waning Gibbous
Nov 7
Last Quarter
Nov 13
New
Nov 20
First Quarter
Nov 28
Full

Hourly Weather History & Observations

Time (CET) Temp. Windchill Dew Point Humidity Pressure Visibility Wind Dir Wind Speed Gust Speed Precip Events Conditions
12:00 AM 39.2 °F 37.0 °F 35.6 °F 87% 29.74 in - South 3.5 mph - N/A   Clear
12:23 AM 39.2 °F 37.0 °F 35.6 °F 87% 29.74 in 6.2 mi East 3.5 mph - N/A Rain Light Rain
12:30 AM 39.2 °F 37.0 °F 35.6 °F 87% 29.74 in 6.2 mi ENE 3.5 mph - N/A Rain Light Rain
1:00 AM 39 °F - 36 °F 83% 29.79 in 9 mi ESE 6.7 mph - - Rain Light Rain
1:00 AM 39.2 °F 34.2 °F 35.6 °F 87% 29.74 in - East 6.9 mph - N/A   Clear
1:30 AM 39.2 °F 35.9 °F 33.8 °F 81% 29.77 in - ESE 4.6 mph - N/A   Clear
2:00 AM 39.2 °F 37.0 °F 35.6 °F 87% 29.77 in - ESE 3.5 mph - N/A   Clear
2:30 AM 41.0 °F - 37.4 °F 87% 29.77 in - Variable 2.3 mph - N/A   Clear
3:00 AM 39.2 °F 37.0 °F 35.6 °F 87% 29.77 in - South 3.5 mph - N/A   Clear
3:30 AM 39.2 °F - 35.6 °F 87% 29.80 in - Variable 1.2 mph - N/A   Clear
4:00 AM 39.2 °F - 35.6 °F 87% 29.77 in - Variable 2.3 mph - N/A   Clear
4:30 AM 39.2 °F - 35.6 °F 87% 29.80 in - Variable 2.3 mph - N/A   Clear
5:00 AM 37.4 °F 34.9 °F 35.6 °F 93% 29.80 in - WNW 3.5 mph - N/A   Clear
5:30 AM 39.2 °F - 35.6 °F 87% 29.80 in - WSW 2.3 mph - N/A   Clear
6:00 AM 39.2 °F 35.9 °F 37.4 °F 93% 29.83 in - SSW 4.6 mph - N/A   Clear
6:30 AM 39.2 °F 37.0 °F 37.4 °F 93% 29.80 in - South 3.5 mph - N/A   Clear
7:00 AM 39 °F - 37 °F 90% 29.87 in 11 mi WNW 2.2 mph - -   Scattered Clouds
7:00 AM 39.2 °F 37.0 °F 37.4 °F 93% 29.83 in 6.2 mi North 3.5 mph - N/A   Partly Cloudy
7:30 AM 39.2 °F - 37.4 °F 93% 29.86 in 6.2 mi Variable 2.3 mph - N/A   Mostly Cloudy
8:00 AM 39.2 °F 37.0 °F 37.4 °F 93% 29.86 in 6.2 mi WSW 3.5 mph - N/A   Mostly Cloudy
8:30 AM 41.0 °F 37.1 °F 37.4 °F 87% 29.86 in - South 5.8 mph - N/A   Clear
9:00 AM 41.0 °F 39.0 °F 39.2 °F 93% 29.86 in - WSW 3.5 mph - N/A   Clear
9:30 AM 42.8 °F - 39.2 °F 87% 29.86 in - Variable 2.3 mph - N/A   Clear
10:00 AM 44.6 °F 42.2 °F 41.0 °F 87% 29.86 in 6.2 mi South 4.6 mph - N/A   Scattered Clouds
10:30 AM 46.4 °F 43.5 °F 41.0 °F 81% 29.83 in 6.2 mi SSE 5.8 mph - N/A   Scattered Clouds
11:00 AM 46.4 °F 42.4 °F 41.0 °F 81% 29.86 in 6.2 mi SSE 8.1 mph - N/A   Partly Cloudy
11:30 AM 48.2 °F - 42.8 °F 82% 29.83 in 6.2 mi SSE 11.5 mph - N/A   Mostly Cloudy
12:00 PM 46.4 °F 41.9 °F 41.0 °F 81% 29.83 in 6.2 mi SSE 9.2 mph - N/A   Mostly Cloudy
12:30 PM 46.4 °F 40.7 °F 41.0 °F 81% 29.83 in 6.2 mi SE 12.7 mph - N/A   Mostly Cloudy
1:00 PM 47 °F - 42 °F 76% 29.86 in 12 mi SE 13.4 mph - -   Mostly Cloudy
1:00 PM 46.4 °F 41.1 °F 41.0 °F 81% 29.83 in 6.2 mi SE 11.5 mph - N/A   Mostly Cloudy
1:30 PM 46.4 °F 41.1 °F 41.0 °F 81% 29.83 in 6.2 mi SE 11.5 mph - N/A   Mostly Cloudy
2:00 PM 46.4 °F 41.9 °F 41.0 °F 81% 29.80 in 6.2 mi SSE 9.2 mph - N/A   Mostly Cloudy
2:30 PM 46.4 °F 41.1 °F 41.0 °F 81% 29.80 in 6.2 mi SE 11.5 mph - N/A   Mostly Cloudy
3:00 PM 46.4 °F 41.5 °F 42.8 °F 87% 29.83 in 6.2 mi SE 10.4 mph - N/A   Overcast
3:30 PM 46.4 °F 41.9 °F 42.8 °F 87% 29.80 in 6.2 mi SE 9.2 mph - N/A   Overcast
3:54 PM 46.4 °F 41.9 °F 41.0 °F 81% 29.80 in - SSE 9.2 mph - N/A   Clear
4:00 PM 46.4 °F 41.9 °F 41.0 °F 81% 29.80 in 6.2 mi SSE 9.2 mph - N/A   Partly Cloudy
4:30 PM 44.6 °F 42.2 °F 41.0 °F 87% 29.80 in - SSE 4.6 mph - N/A   Clear
5:00 PM 44.6 °F - 41.0 °F 87% 29.80 in 6.2 mi Variable 2.3 mph - N/A   Scattered Clouds
5:30 PM 44.6 °F - 41.0 °F 87% 29.80 in - Variable 2.3 mph - N/A   Clear
6:00 PM 44.6 °F 42.2 °F 41.0 °F 87% 29.80 in 6.2 mi NNE 4.6 mph - N/A   Mostly Cloudy
6:30 PM 44.6 °F 42.2 °F 41.0 °F 87% 29.80 in 6.2 mi ENE 4.6 mph - N/A   Partly Cloudy
7:00 PM 44 °F - 41 °F 85% 29.83 in 7 mi ENE 4.5 mph - -   Scattered Clouds
7:00 PM 42.8 °F 41.1 °F 41.0 °F 93% 29.80 in - East 3.5 mph - N/A   Clear
7:30 PM 44.6 °F 42.2 °F 42.8 °F 93% 29.80 in 5.0 mi East 4.6 mph - N/A   Partly Cloudy
8:00 PM 44.6 °F 40.7 °F 41.0 °F 87% 29.77 in 5.0 mi SE 6.9 mph - N/A   Partly Cloudy
8:30 PM 44.6 °F 41.4 °F 42.8 °F 93% 29.80 in 5.0 mi SE 5.8 mph - N/A   Unknown
9:00 PM 44.6 °F 42.2 °F 41.0 °F 87% 29.77 in 5.6 mi ESE 4.6 mph - N/A   Unknown
9:30 PM 42.8 °F 38.6 °F 41.0 °F 93% 29.77 in 5.6 mi ESE 6.9 mph - N/A   Unknown
10:00 PM 42.8 °F 38.0 °F 41.0 °F 93% 29.77 in 5.6 mi ESE 8.1 mph - N/A   Unknown
10:30 PM 44.6 °F 41.4 °F 41.0 °F 87% 29.77 in 5.6 mi SE 5.8 mph - N/A   Unknown
11:00 PM 44.6 °F 42.2 °F 41.0 °F 87% 29.77 in 5.6 mi East 4.6 mph - N/A   Scattered Clouds
11:30 PM 44.6 °F 41.4 °F 42.8 °F 93% 29.77 in 5.0 mi SE 5.8 mph - N/A   Mostly Cloudy